M I D A S
Marine Information and Data Acquisition System
Tripno 2230 of the Zeeleeuw from 2011-08-17 06:11:50 to 2011-08-17 14:39:30
Back to CruiseResearch ActivitiesStationsMapUnderway DataData graphs

EquipmentUnitsComments
TimeDGPSUTC
LatitudeDGPSDM.mWGS84
LongitudeDGPSDM.mWGS84
SpeedMeteo Stationm/sRelative wind speed
DirectionMeteo StationdegRelative wind direction
TemperatureMeteo Stationdeg CelciusAir temperature
PressureMeteo StationPaAtmospheric pressure
HumidityMeteo Station%Relative humidity
Missing or incorrect values are displayed as -999
Metereological data collected by the RV Zeeleeuw from 2011-08-17 06:15:54 to 2011-08-17 14:50:24
                                                                                    Next 1000 lines
Time Latitude Longitude Speed Direction Temperature Pressure Humidity
2011-08-17 06:16:05 51°13.635 2°56.016 -999 28 15.4 101600 48
2011-08-17 06:16:10 51°13.636 2°56.014 -999 28 15.4 101600 47
2011-08-17 06:16:15 51°13.636 2°56.013 -999 27 15.4 101600 47
2011-08-17 06:16:20 51°13.636 2°56.011 -999 24 15.4 101600 48
2011-08-17 06:16:25 51°13.637 2°56.009 -999 20 15.4 101600 48
2011-08-17 06:16:30 51°13.638 2°56.006 -999 29 15.4 101600 48
2011-08-17 06:16:34 51°13.638 2°56.004 -999 30 15.4 101600 48
2011-08-17 06:16:40 51°13.639 2°56.001 -999 31 15.4 101600 48
2011-08-17 06:16:46 51°13.64 2°55.997 -999 31 15.4 101600 48
2011-08-17 06:16:51 51°13.641 2°55.994 -999 31 15.4 101600 48
2011-08-17 06:16:57 51°13.642 2°55.99 -999 37 15.4 101600 48
2011-08-17 06:17:02 51°13.643 2°55.987 -999 30 15.4 101600 48
2011-08-17 06:17:08 51°13.644 2°55.982 -999 40 15.4 101600 48
2011-08-17 06:17:13 51°13.645 2°55.979 -999 25 15.4 101600 48
2011-08-17 06:17:18 51°13.646 2°55.975 -999 41 15.4 101600 48
2011-08-17 06:17:23 51°13.647 2°55.97 0.3 44 15.4 101600 48
2011-08-17 06:17:29 51°13.649 2°55.965 1.5 55 15.4 101600 48
2011-08-17 06:17:33 51°13.65 2°55.961 1.5 44 15.4 101600 48
2011-08-17 06:17:38 51°13.651 2°55.956 1.4 41 15.4 101600 48
2011-08-17 06:17:43 51°13.652 2°55.95 1 36 15.4 101600 48
2011-08-17 06:17:49 51°13.654 2°55.942 0.2 33 15.4 101600 48
2011-08-17 06:17:53 51°13.655 2°55.937 1 36 15.4 101600 49
2011-08-17 06:17:58 51°13.656 2°55.93 1.4 45 15.4 101600 49
2011-08-17 06:18:03 51°13.658 2°55.923 0.8 44 15.4 101600 47
2011-08-17 06:18:09 51°13.66 2°55.914 0.1 54 15.4 101600 47
2011-08-17 06:18:14 51°13.662 2°55.905 0.1 28 15.4 101600 47
2011-08-17 06:18:18 51°13.664 2°55.899 0.1 37 15.4 101600 47
2011-08-17 06:18:23 51°13.666 2°55.89 0.3 22 15.4 101600 48
2011-08-17 06:18:28 51°13.668 2°55.881 0.1 55 15.4 101600 48
2011-08-17 06:18:34 51°13.671 2°55.871 2.1 23 15.4 101600 48
2011-08-17 06:18:38 51°13.673 2°55.863 2.4 44 15.4 101600 48
2011-08-17 06:18:43 51°13.675 2°55.854 2.1 44 15.4 101600 48
2011-08-17 06:18:48 51°13.677 2°55.845 0.5 44 15.4 101600 48
2011-08-17 06:18:53 51°13.68 2°55.837 2 24 15.4 101600 46
2011-08-17 06:18:58 51°13.682 2°55.829 2.4 57 15.4 101600 46
2011-08-17 06:19:03 51°13.684 2°55.821 1.7 19 15.4 101600 48
2011-08-17 06:19:08 51°13.686 2°55.814 1.9 41 15.4 101600 48
2011-08-17 06:19:13 51°13.687 2°55.807 2.1 22 15.5 101600 49
2011-08-17 06:19:18 51°13.689 2°55.8 2 57 15.5 101600 49
2011-08-17 06:19:23 51°13.69 2°55.794 1.2 44 15.5 101600 49
2011-08-17 06:19:28 51°13.691 2°55.788 1.4 37 15.5 101600 49
2011-08-17 06:19:33 51°13.692 2°55.782 1.7 38 15.4 101600 48
2011-08-17 06:19:38 51°13.693 2°55.776 1.1 36 15.4 101600 48
2011-08-17 06:19:43 51°13.694 2°55.771 0.6 38 15.5 101600 49
2011-08-17 06:19:48 51°13.694 2°55.766 2 44 15.5 101600 49
2011-08-17 06:19:52 51°13.695 2°55.762 2.2 44 15.5 101600 49
2011-08-17 06:19:58 51°13.695 2°55.757 2.8 34 15.5 101600 49
2011-08-17 06:20:02 51°13.695 2°55.755 1.8 38 15.5 101600 48
2011-08-17 06:20:07 51°13.696 2°55.754 1.3 52 15.5 101600 48
2011-08-17 06:20:12 51°13.696 2°55.754 1 31 15.5 101600 49
2011-08-17 06:20:17 51°13.696 2°55.756 0.4 37 15.5 101600 49
2011-08-17 06:20:22 51°13.697 2°55.759 0.9 40 15.5 101600 48
2011-08-17 06:20:26 51°13.698 2°55.763 0.2 40 15.5 101600 48
2011-08-17 06:20:31 51°13.7 2°55.768 0.1 40 15.4 101600 48
2011-08-17 06:20:36 51°13.703 2°55.772 0.1 41 15.4 101600 48
2011-08-17 06:20:41 51°13.705 2°55.777 0.1 41 15.4 101600 48
2011-08-17 06:20:46 51°13.707 2°55.78 0.1 55 15.4 101600 48
2011-08-17 06:20:50 51°13.709 2°55.782 0.1 25 15.4 101600 48
2011-08-17 06:20:56 51°13.712 2°55.786 0.1 52 15.4 101600 48
2011-08-17 06:21:00 51°13.714 2°55.787 0.2 26 15.4 101600 48
2011-08-17 06:21:05 51°13.715 2°55.788 0.3 60 15.4 101600 48
2011-08-17 06:21:10 51°13.716 2°55.789 0.9 27 15.4 101600 48
2011-08-17 06:21:15 51°13.717 2°55.789 0.3 57 15.4 101600 48
2011-08-17 06:21:20 51°13.717 2°55.789 0.8 19 15.4 101600 48
2011-08-17 06:21:25 51°13.716 2°55.789 1.1 56 15.4 101600 48
2011-08-17 06:21:30 51°13.716 2°55.788 1.2 25 15.4 101600 47
2011-08-17 06:21:34 51°13.715 2°55.788 0.8 58 15.4 101600 47
2011-08-17 06:21:40 51°13.713 2°55.787 1.9 26 15.4 101600 48
2011-08-17 06:21:45 51°13.711 2°55.785 1.8 49 15.4 101600 48
2011-08-17 06:21:51 51°13.709 2°55.784 1.6 22 15.5 101600 49
2011-08-17 06:21:57 51°13.708 2°55.783 1.1 79 15.5 101600 49
2011-08-17 06:22:02 51°13.709 2°55.782 0.2 25 15.4 101600 49
2011-08-17 06:22:08 51°13.71 2°55.78 1.3 306 15.4 101600 49
2011-08-17 06:22:13 51°13.713 2°55.779 1.4 257 15.4 101600 47
2011-08-17 06:22:18 51°13.716 2°55.776 0.1 305 15.4 101600 47
2011-08-17 06:22:23 51°13.719 2°55.772 0.1 19 15.4 101600 48
2011-08-17 06:22:28 51°13.723 2°55.767 0.1 300 15.4 101600 48
2011-08-17 06:22:33 51°13.728 2°55.76 3.3 28 15.5 101600 48
2011-08-17 06:22:38 51°13.733 2°55.753 3.4 303 15.5 101600 48
2011-08-17 06:22:42 51°13.737 2°55.747 3 23 15.5 101600 48
2011-08-17 06:22:47 51°13.743 2°55.739 2.7 305 15.5 101600 48
2011-08-17 06:22:53 51°13.75 2°55.728 2.7 20 15.5 101600 47
2011-08-17 06:22:58 51°13.757 2°55.718 2.8 310 15.5 101600 47
2011-08-17 06:23:02 51°13.762 2°55.71 2.8 28 15.5 101600 47
2011-08-17 06:23:07 51°13.769 2°55.701 2.5 308 15.5 101600 47
2011-08-17 06:23:12 51°13.776 2°55.691 3.7 23 15.5 101600 48
2011-08-17 06:23:18 51°13.786 2°55.68 1.8 303 15.5 101600 48
2011-08-17 06:23:22 51°13.792 2°55.672 2.2 24 15.5 101600 48
2011-08-17 06:23:27 51°13.8 2°55.662 1.7 303 15.5 101600 48
2011-08-17 06:23:32 51°13.809 2°55.653 2.4 315 15.5 101600 48
2011-08-17 06:23:38 51°13.819 2°55.641 3.2 303 15.5 101600 48
2011-08-17 06:23:42 51°13.827 2°55.634 4.2 320 15.5 101600 48
2011-08-17 06:23:47 51°13.836 2°55.626 3.1 280 15.5 101600 48
2011-08-17 06:23:52 51°13.846 2°55.619 2 320 15.5 101600 48
2011-08-17 06:23:57 51°13.856 2°55.611 1.9 276 15.5 101600 48
2011-08-17 06:24:02 51°13.866 2°55.603 3.9 327 15.5 101600 47
2011-08-17 06:24:07 51°13.876 2°55.595 3 336 15.5 101600 47
2011-08-17 06:24:12 51°13.886 2°55.588 3.2 326 15.5 101600 47
2011-08-17 06:24:17 51°13.896 2°55.58 3.8 305 15.5 101600 47
2011-08-17 06:24:22 51°13.907 2°55.573 3 27 15.5 101600 49
2011-08-17 06:24:27 51°13.918 2°55.566 2.1 306 15.5 101600 49
2011-08-17 06:24:32 51°13.928 2°55.557 2.3 321 15.5 101600 49
2011-08-17 06:24:36 51°13.936 2°55.551 2.7 309 15.5 101600 49
2011-08-17 06:24:41 51°13.947 2°55.543 2.4 322 15.5 101600 48
2011-08-17 06:24:47 51°13.96 2°55.535 3.7 301 15.5 101600 48
2011-08-17 06:24:52 51°13.971 2°55.527 3.2 21 15.5 101600 48
2011-08-17 06:24:58 51°13.984 2°55.518 3.5 300 15.5 101600 48
2011-08-17 06:25:02 51°13.992 2°55.512 3.1 318 15.5 101600 49
2011-08-17 06:25:08 51°14.005 2°55.503 2.9 299 15.5 101600 49
2011-08-17 06:25:13 51°14.016 2°55.495 2.2 317 15.5 101600 49
2011-08-17 06:25:18 51°14.026 2°55.487 1.7 308 15.5 101600 49
2011-08-17 06:25:23 51°14.037 2°55.48 2.2 329 15.5 101600 48
2011-08-17 06:25:28 51°14.048 2°55.472 3 279 15.5 101600 48
2011-08-17 06:25:33 51°14.058 2°55.463 2.5 324 15.5 101600 48
2011-08-17 06:25:38 51°14.069 2°55.455 2.8 325 15.5 101600 48
2011-08-17 06:25:42 51°14.077 2°55.448 3.1 328 15.5 101600 48
2011-08-17 06:25:47 51°14.088 2°55.44 3.3 310 15.5 101600 48
2011-08-17 06:25:52 51°14.098 2°55.432 3.2 317 15.5 101600 49
2011-08-17 06:25:58 51°14.11 2°55.422 2.6 302 15.5 101600 49
2011-08-17 06:26:02 51°14.119 2°55.416 3.3 326 15.5 101600 49
2011-08-17 06:26:07 51°14.129 2°55.408 3.4 301 15.5 101600 49
2011-08-17 06:26:12 51°14.14 2°55.4 2.9 322 15.5 101600 49
2011-08-17 06:26:17 51°14.15 2°55.392 3.2 304 15.5 101600 49
2011-08-17 06:26:23 51°14.163 2°55.382 3.3 319 15.5 101600 48
2011-08-17 06:26:28 51°14.173 2°55.374 2.9 302 15.5 101600 48
2011-08-17 06:26:33 51°14.183 2°55.365 2.3 316 15.5 101600 48
2011-08-17 06:26:38 51°14.194 2°55.357 3.2 283 15.5 101600 48
2011-08-17 06:26:42 51°14.202 2°55.35 2.5 319 15.5 101600 49
2011-08-17 06:26:48 51°14.214 2°55.339 3.2 303 15.5 101600 49
2011-08-17 06:26:53 51°14.225 2°55.33 3.7 320 15.5 101600 48
2011-08-17 06:26:58 51°14.235 2°55.321 2.4 309 15.5 101600 48
2011-08-17 06:27:03 51°14.246 2°55.312 4.9 324 15.6 101600 48
2011-08-17 06:27:08 51°14.257 2°55.303 3.3 306 15.6 101600 48
2011-08-17 06:27:13 51°14.267 2°55.294 3.7 25 15.6 101610 48
2011-08-17 06:27:18 51°14.278 2°55.284 2.9 303 15.6 101610 48
2011-08-17 06:27:23 51°14.289 2°55.274 3.4 29 15.6 101600 48
2011-08-17 06:27:28 51°14.299 2°55.264 3.9 283 15.6 101600 48
2011-08-17 06:27:33 51°14.31 2°55.254 3.9 316 15.6 101600 48
2011-08-17 06:27:38 51°14.321 2°55.243 4.3 322 15.6 101600 48
2011-08-17 06:27:43 51°14.331 2°55.233 4.3 319 15.6 101600 49
2011-08-17 06:27:48 51°14.342 2°55.222 3.9 300 15.6 101600 49
2011-08-17 06:27:53 51°14.352 2°55.212 3.5 319 15.6 101600 49
2011-08-17 06:27:58 51°14.363 2°55.202 4.9 306 15.6 101600 49
2011-08-17 06:28:03 51°14.374 2°55.191 4.4 22 15.6 101600 49
2011-08-17 06:28:08 51°14.385 2°55.181 3.3 301 15.6 101600 49
2011-08-17 06:28:13 51°14.395 2°55.17 3.5 20 15.6 101600 49
2011-08-17 06:28:18 51°14.406 2°55.16 3.8 300 15.6 101600 49
2011-08-17 06:28:23 51°14.416 2°55.149 3.5 317 15.7 101600 48
2011-08-17 06:28:28 51°14.427 2°55.138 4.6 302 15.7 101600 48
2011-08-17 06:28:33 51°14.438 2°55.127 5 21 15.7 101600 48
2011-08-17 06:28:38 51°14.448 2°55.116 3.7 304 15.7 101600 48
2011-08-17 06:28:43 51°14.459 2°55.106 4.5 27 15.7 101600 49
2011-08-17 06:28:48 51°14.47 2°55.095 5.3 302 15.7 101600 49
2011-08-17 06:28:52 51°14.478 2°55.086 4 27 15.7 101600 49
2011-08-17 06:28:57 51°14.489 2°55.075 3.9 303 15.7 101600 49
2011-08-17 06:29:02 51°14.5 2°55.065 4.7 27 15.7 101600 49
2011-08-17 06:29:07 51°14.511 2°55.054 4.8 304 15.7 101600 49
2011-08-17 06:29:12 51°14.523 2°55.043 3.8 24 15.7 101600 48
2011-08-17 06:29:17 51°14.534 2°55.031 4.2 303 15.7 101600 48
2011-08-17 06:29:22 51°14.544 2°55.019 4.5 27 15.8 101600 49
2011-08-17 06:29:26 51°14.553 2°55.009 6.1 302 15.8 101600 49
2011-08-17 06:29:31 51°14.563 2°54.995 5.2 20 15.8 101600 47
2011-08-17 06:29:36 51°14.573 2°54.98 4.3 279 15.8 101600 47
2011-08-17 06:29:41 51°14.584 2°54.965 5 25 15.8 101600 48
2011-08-17 06:29:46 51°14.595 2°54.95 6.2 283 15.8 101600 48
2011-08-17 06:29:50 51°14.604 2°54.938 4.9 30 15.8 101600 48
2011-08-17 06:29:55 51°14.615 2°54.923 5.8 303 15.8 101600 48
2011-08-17 06:30:00 51°14.627 2°54.907 6 26 15.8 101600 49
2011-08-17 06:30:05 51°14.638 2°54.892 5.3 301 15.8 101600 49
2011-08-17 06:30:10 51°14.651 2°54.876 5.3 27 15.8 101600 49
2011-08-17 06:30:15 51°14.663 2°54.861 6 308 15.8 101600 49
2011-08-17 06:30:20 51°14.676 2°54.846 6.1 22 15.8 101600 48
2011-08-17 06:30:25 51°14.688 2°54.83 7.3 302 15.8 101600 48
2011-08-17 06:30:30 51°14.701 2°54.815 5.5 26 15.7 101600 48
2011-08-17 06:30:34 51°14.712 2°54.802 5.9 278 15.7 101600 48
2011-08-17 06:30:40 51°14.727 2°54.782 6.2 26 15.8 101600 48
2011-08-17 06:30:45 51°14.739 2°54.766 7.1 304 15.8 101600 48
2011-08-17 06:30:50 51°14.752 2°54.75 5.2 27 15.8 101600 48
2011-08-17 06:30:54 51°14.762 2°54.737 4.8 302 15.8 101600 48
2011-08-17 06:30:59 51°14.775 2°54.721 5.7 28 15.8 101600 48
2011-08-17 06:31:05 51°14.791 2°54.702 6.5 308 15.8 101600 48
2011-08-17 06:31:10 51°14.804 2°54.687 6.8 27 15.8 101600 48
2011-08-17 06:31:14 51°14.814 2°54.674 5.4 307 15.8 101600 48
2011-08-17 06:31:20 51°14.83 2°54.655 6 22 15.8 101600 48
2011-08-17 06:31:25 51°14.843 2°54.639 5.5 308 15.8 101600 48
2011-08-17 06:31:30 51°14.856 2°54.622 5.3 21 15.8 101600 49
2011-08-17 06:31:34 51°14.866 2°54.609 5.3 279 15.8 101600 49
2011-08-17 06:31:40 51°14.881 2°54.589 5.1 27 15.8 101590 48
2011-08-17 06:31:45 51°14.894 2°54.572 5.5 302 15.8 101590 48
2011-08-17 06:31:50 51°14.907 2°54.556 5.2 26 15.8 101600 48
2011-08-17 06:31:54 51°14.917 2°54.543 4.6 307 15.8 101600 48
2011-08-17 06:31:59 51°14.93 2°54.528 5.3 26 15.8 101600 48
2011-08-17 06:32:05 51°14.947 2°54.511 6 305 15.8 101600 48
2011-08-17 06:32:10 51°14.961 2°54.497 4.6 26 15.8 101600 47
2011-08-17 06:32:15 51°14.975 2°54.485 5.3 303 15.8 101600 47
2011-08-17 06:32:20 51°14.99 2°54.473 5.8 19 15.8 101600 49
2011-08-17 06:32:25 51°15.004 2°54.462 4.8 307 15.8 101600 49
2011-08-17 06:32:30 51°15.019 2°54.452 3.5 22 15.8 101600 47
2011-08-17 06:32:34 51°15.031 2°54.445 2.6 278 15.8 101600 47
2011-08-17 06:32:40 51°15.05 2°54.436 3.6 26 15.8 101590 48
2011-08-17 06:32:45 51°15.065 2°54.429 4.4 303 15.8 101590 48
2011-08-17 06:32:50 51°15.081 2°54.423 4.6 21 15.8 101600 47
2011-08-17 06:32:54 51°15.094 2°54.418 4.7 303 15.8 101600 47
2011-08-17 06:33:00 51°15.112 2°54.412 3.5 21 15.8 101600 48
2011-08-17 06:33:05 51°15.128 2°54.408 3.7 301 15.8 101600 48
2011-08-17 06:33:10 51°15.144 2°54.404 3.7 23 15.8 101600 48
2011-08-17 06:33:14 51°15.156 2°54.402 2.7 306 15.8 101600 48
2011-08-17 06:33:20 51°15.175 2°54.399 3.2 30 15.8 101600 48
2011-08-17 06:33:25 51°15.191 2°54.396 3.4 306 15.8 101600 48
2011-08-17 06:33:30 51°15.206 2°54.392 4 21 15.8 101610 48
2011-08-17 06:33:34 51°15.219 2°54.389 4.4 280 15.8 101610 48
2011-08-17 06:33:40 51°15.237 2°54.383 4.2 27 15.8 101600 48
2011-08-17 06:33:45 51°15.253 2°54.378 4.1 301 15.8 101600 48
2011-08-17 06:33:50 51°15.268 2°54.371 4.5 26 15.8 101600 48
2011-08-17 06:33:54 51°15.28 2°54.366 3.5 302 15.8 101600 48
2011-08-17 06:33:59 51°15.296 2°54.361 3.1 28 15.8 101600 48
2011-08-17 06:34:05 51°15.314 2°54.358 2.6 308 15.8 101600 48
2011-08-17 06:34:10 51°15.33 2°54.357 2.7 25 15.8 101600 49
2011-08-17 06:34:15 51°15.346 2°54.357 2.3 302 15.8 101600 49
2011-08-17 06:34:19 51°15.359 2°54.357 2.7 27 15.8 101600 49
2011-08-17 06:34:25 51°15.378 2°54.357 2.9 310 15.8 101600 49
2011-08-17 06:34:30 51°15.393 2°54.357 3.1 28 15.8 101600 48
2011-08-17 06:34:34 51°15.406 2°54.356 3.3 283 15.8 101600 48
2011-08-17 06:34:39 51°15.421 2°54.354 3.7 25 15.8 101610 49
2011-08-17 06:34:45 51°15.44 2°54.351 3.7 300 15.8 101610 49
2011-08-17 06:34:50 51°15.456 2°54.347 3.2 28 15.8 101610 46
2011-08-17 06:34:55 51°15.472 2°54.343 3.4 302 15.8 101610 46
2011-08-17 06:35:00 51°15.487 2°54.34 3.2 24 15.8 101610 48
2011-08-17 06:35:05 51°15.503 2°54.337 3.4 305 15.8 101610 48
2011-08-17 06:35:10 51°15.519 2°54.336 2.8 21 15.8 101600 47
2011-08-17 06:35:14 51°15.532 2°54.335 2.6 309 15.8 101600 47
2011-08-17 06:35:20 51°15.55 2°54.335 2.5 29 15.8 101600 49
2011-08-17 06:35:25 51°15.566 2°54.335 2.5 303 15.8 101600 49
2011-08-17 06:35:30 51°15.582 2°54.335 3.3 25 15.8 101610 49
2011-08-17 06:35:34 51°15.594 2°54.335 3 281 15.8 101610 49
2011-08-17 06:35:40 51°15.613 2°54.332 3.7 24 15.8 101610 49
2011-08-17 06:35:45 51°15.629 2°54.329 3.4 300 15.8 101610 49
2011-08-17 06:35:50 51°15.644 2°54.325 3.8 23 15.8 101610 48
2011-08-17 06:35:54 51°15.657 2°54.323 3.8 309 15.8 101610 48
2011-08-17 06:36:00 51°15.675 2°54.319 4.2 28 15.9 101610 48
2011-08-17 06:36:05 51°15.691 2°54.316 3.3 302 15.9 101610 48
2011-08-17 06:36:10 51°15.706 2°54.313 3.7 28 15.9 101600 49
2011-08-17 06:36:14 51°15.719 2°54.311 3.7 308 15.9 101600 49
2011-08-17 06:36:20 51°15.738 2°54.309 3.5 29 15.9 101610 49
2011-08-17 06:36:25 51°15.753 2°54.307 3 301 15.9 101610 49
2011-08-17 06:36:30 51°15.769 2°54.306 3.4 20 15.9 101610 49
2011-08-17 06:36:34 51°15.782 2°54.305 2.8 282 15.9 101610 49
2011-08-17 06:36:40 51°15.801 2°54.304 3.3 22 15.9 101610 48
2011-08-17 06:36:45 51°15.816 2°54.303 3.3 309 15.9 101610 48
2011-08-17 06:36:50 51°15.832 2°54.304 3 20 15.9 101610 49
2011-08-17 06:36:54 51°15.845 2°54.303 2.5 307 15.9 101610 49
2011-08-17 06:37:00 51°15.863 2°54.304 2.7 23 15.9 101610 48
2011-08-17 06:37:05 51°15.879 2°54.304 2.9 302 15.9 101610 48
2011-08-17 06:37:10 51°15.894 2°54.301 2.6 26 15.9 101610 48
2011-08-17 06:37:14 51°15.907 2°54.299 2.8 308 15.9 101610 48
2011-08-17 06:37:20 51°15.926 2°54.295 3.6 25 16 101610 49
2011-08-17 06:37:25 51°15.942 2°54.293 1.9 302 16 101610 49
2011-08-17 06:37:30 51°15.957 2°54.291 2.9 26 15.9 101600 46
2011-08-17 06:37:34 51°15.97 2°54.291 2.5 277 15.9 101600 46
2011-08-17 06:37:40 51°15.989 2°54.291 3 22 15.9 101610 47
2011-08-17 06:37:45 51°16.003 2°54.293 1 302 15.9 101610 47
2011-08-17 06:37:50 51°16.016 2°54.296 0.8 22 16 101610 48
2011-08-17 06:37:54 51°16.025 2°54.299 0.1 305 16 101610 48
2011-08-17 06:38:00 51°16.038 2°54.304 0.1 24 15.9 101610 48
2011-08-17 06:38:05 51°16.049 2°54.309 -999 305 15.9 101610 48
2011-08-17 06:38:10 51°16.058 2°54.314 -999 24 16 101610 48
2011-08-17 06:38:14 51°16.065 2°54.317 -999 306 16 101610 48
2011-08-17 06:38:19 51°16.074 2°54.322 -999 267 16 101610 48
2011-08-17 06:38:25 51°16.084 2°54.326 -999 305 16 101610 48
2011-08-17 06:38:30 51°16.092 2°54.329 -999 261 16 101610 48
2011-08-17 06:38:34 51°16.099 2°54.33 -999 281 16 101610 48
2011-08-17 06:38:40 51°16.108 2°54.331 -999 263 16 101610 48
2011-08-17 06:38:45 51°16.116 2°54.332 -999 305 16 101610 48
2011-08-17 06:38:50 51°16.123 2°54.331 -999 264 16 101610 48
2011-08-17 06:38:54 51°16.129 2°54.33 -999 305 16 101610 48
2011-08-17 06:39:00 51°16.137 2°54.328 -999 262 16 101610 48
2011-08-17 06:39:05 51°16.144 2°54.326 -999 305 16 101610 48
2011-08-17 06:39:10 51°16.15 2°54.323 -999 262 16 101610 48
2011-08-17 06:39:14 51°16.155 2°54.321 -999 305 16 101610 48
2011-08-17 06:39:20 51°16.162 2°54.319 -999 263 16 101610 48
2011-08-17 06:39:25 51°16.168 2°54.316 -999 305 16 101610 48
2011-08-17 06:39:30 51°16.173 2°54.313 -999 265 16 101610 48
2011-08-17 06:39:35 51°16.178 2°54.311 -999 281 16 101610 48
2011-08-17 06:39:40 51°16.183 2°54.308 -999 268 16 101620 48
2011-08-17 06:39:45 51°16.188 2°54.306 -999 305 16 101620 48
2011-08-17 06:39:50 51°16.193 2°54.304 -999 269 16 101610 48
2011-08-17 06:39:54 51°16.196 2°54.302 -999 83 16 101610 48
2011-08-17 06:40:00 51°16.201 2°54.3 -999 25 16 101610 48
2011-08-17 06:40:05 51°16.206 2°54.298 -999 55 16 101610 48
2011-08-17 06:40:10 51°16.209 2°54.297 -999 24 16 101610 47
2011-08-17 06:40:14 51°16.212 2°54.296 -999 55 16 101610 47
2011-08-17 06:40:19 51°16.216 2°54.295 -999 24 16 101610 48
2011-08-17 06:40:25 51°16.22 2°54.293 -999 55 16 101610 48
2011-08-17 06:40:30 51°16.224 2°54.292 -999 24 16 101610 48
2011-08-17 06:40:34 51°16.226 2°54.291 -999 79 16 101610 48
2011-08-17 06:40:40 51°16.23 2°54.29 -999 24 16 101610 48
2011-08-17 06:40:45 51°16.233 2°54.288 -999 79 16 101610 48
2011-08-17 06:40:50 51°16.236 2°54.287 -999 24 16 101610 48
2011-08-17 06:40:54 51°16.238 2°54.286 -999 55 16 101610 48
2011-08-17 06:41:00 51°16.24 2°54.284 2.5 19 16 101610 48
2011-08-17 06:41:05 51°16.242 2°54.283 2.6 53 16 101610 48
2011-08-17 06:41:10 51°16.243 2°54.282 2.6 29 16 101610 48
2011-08-17 06:41:14 51°16.244 2°54.282 2.2 59 16 101610 48
2011-08-17 06:41:20 51°16.246 2°54.281 2.5 26 16 101610 48
2011-08-17 06:41:25 51°16.247 2°54.28 2.4 59 16 101610 48
2011-08-17 06:41:30 51°16.248 2°54.279 1.9 22 16 101610 49
2011-08-17 06:41:35 51°16.249 2°54.279 2.5 77 16 101610 49
2011-08-17 06:41:40 51°16.251 2°54.278 2.4 23 16.1 101610 49
2011-08-17 06:41:45 51°16.252 2°54.278 1.6 58 16.1 101610 49
2011-08-17 06:41:50 51°16.253 2°54.277 2.1 27 16.1 101610 48
2011-08-17 06:41:54 51°16.254 2°54.277 2.4 58 16.1 101610 48
2011-08-17 06:42:00 51°16.255 2°54.278 1.6 28 16.1 101620 48
2011-08-17 06:42:05 51°16.256 2°54.277 2.1 60 16.1 101620 48
2011-08-17 06:42:10 51°16.257 2°54.276 1.8 20 16.1 101610 48
2011-08-17 06:42:14 51°16.258 2°54.275 2.3 58 16.1 101610 48
2011-08-17 06:42:20 51°16.259 2°54.274 2.1 25 16.1 101610 48
2011-08-17 06:42:25 51°16.26 2°54.273 1.8 57 16.1 101610 48
2011-08-17 06:42:30 51°16.261 2°54.272 1.5 19 16.1 101610 49
2011-08-17 06:42:34 51°16.261 2°54.272 1.6 75 16.1 101610 49
2011-08-17 06:42:40 51°16.263 2°54.271 0.8 23 16.1 101620 49
2011-08-17 06:42:45 51°16.263 2°54.27 2.3 53 16.1 101620 49
2011-08-17 06:42:50 51°16.264 2°54.269 2.3 28 16.1 101620 47
2011-08-17 06:42:54 51°16.265 2°54.268 1.6 55 16.1 101620 47
2011-08-17 06:43:00 51°16.266 2°54.267 2.6 22 16.2 101610 48
2011-08-17 06:43:05 51°16.267 2°54.266 2 57 16.2 101610 48
2011-08-17 06:43:10 51°16.268 2°54.265 2.3 28 16.2 101610 48
2011-08-17 06:43:14 51°16.268 2°54.264 2.5 59 16.2 101610 48
2011-08-17 06:43:20 51°16.269 2°54.263 2.9 21 16.2 101610 48
2011-08-17 06:43:25 51°16.27 2°54.262 2.9 53 16.2 101610 48
2011-08-17 06:43:30 51°16.271 2°54.261 2.5 30 16.1 101610 48
2011-08-17 06:43:35 51°16.272 2°54.26 2.2 74 16.1 101610 48
2011-08-17 06:43:40 51°16.272 2°54.259 2.6 21 16.1 101620 48
2011-08-17 06:43:45 51°16.273 2°54.258 2.8 56 16.1 101620 48
2011-08-17 06:43:50 51°16.274 2°54.257 2.9 25 16.1 101620 48
2011-08-17 06:43:54 51°16.274 2°54.256 3 58 16.1 101620 48
2011-08-17 06:44:00 51°16.275 2°54.254 2.8 25 16.1 101610 48
2011-08-17 06:44:05 51°16.276 2°54.253 3.1 59 16.1 101610 48
2011-08-17 06:44:10 51°16.276 2°54.252 3.1 26 16.1 101620 48
2011-08-17 06:44:14 51°16.277 2°54.251 3 53 16.1 101620 48
2011-08-17 06:44:20 51°16.277 2°54.25 2.9 23 16.1 101610 49
2011-08-17 06:44:25 51°16.278 2°54.249 3 58 16.1 101610 49
2011-08-17 06:44:30 51°16.278 2°54.247 3.1 23 16.1 101620 47
2011-08-17 06:44:34 51°16.279 2°54.246 3.3 83 16.1 101620 47
2011-08-17 06:44:40 51°16.279 2°54.244 2.7 29 16.1 101620 49
2011-08-17 06:44:45 51°16.28 2°54.243 3.4 58 16.1 101620 49
2011-08-17 06:44:50 51°16.28 2°54.241 3.3 28 16.1 101620 48
2011-08-17 06:44:54 51°16.281 2°54.24 2.6 60 16.1 101620 48
2011-08-17 06:44:59 51°16.281 2°54.239 3.1 28 16 101610 48
2011-08-17 06:45:05 51°16.282 2°54.238 3.3 56 16 101610 48
2011-08-17 06:45:10 51°16.282 2°54.236 3 23 16 101620 49
2011-08-17 06:45:14 51°16.283 2°54.235 3 57 16 101620 49
2011-08-17 06:45:20 51°16.283 2°54.233 2.9 21 16 101620 48
2011-08-17 06:45:25 51°16.284 2°54.232 3.7 52 16 101620 48
2011-08-17 06:45:30 51°16.284 2°54.231 3.2 27 16.1 101620 47
2011-08-17 06:45:34 51°16.284 2°54.23 3.3 74 16.1 101620 47
2011-08-17 06:45:40 51°16.285 2°54.228 2.9 28 16.1 101610 48
2011-08-17 06:45:45 51°16.286 2°54.227 3.3 56 16.1 101610 48
2011-08-17 06:45:50 51°16.286 2°54.225 3 21 16.1 101620 49
2011-08-17 06:45:54 51°16.286 2°54.224 4 51 16.1 101620 49
2011-08-17 06:46:00 51°16.287 2°54.222 3.7 20 16.1 101620 49
2011-08-17 06:46:05 51°16.287 2°54.221 3.5 59 16.1 101620 49
2011-08-17 06:46:10 51°16.287 2°54.219 3.6 24 16.1 101620 49
2011-08-17 06:46:15 51°16.288 2°54.218 3.4 59 16.1 101620 49
2011-08-17 06:46:20 51°16.288 2°54.216 3.5 22 16.1 101620 49
2011-08-17 06:46:25 51°16.288 2°54.215 2.9 52 16.1 101620 49
2011-08-17 06:46:30 51°16.289 2°54.213 3.2 25 16.1 101620 48
2011-08-17 06:46:34 51°16.289 2°54.212 3.6 80 16.1 101620 48
2011-08-17 06:46:40 51°16.289 2°54.21 3.9 28 16.1 101620 48
2011-08-17 06:46:45 51°16.289 2°54.209 3.4 59 16.1 101620 48
2011-08-17 06:46:50 51°16.29 2°54.207 3.4 29 16.1 101620 48
2011-08-17 06:46:54 51°16.29 2°54.206 3.4 56 16.1 101620 48
2011-08-17 06:47:00 51°16.29 2°54.204 3.5 21 16.1 101620 48
2011-08-17 06:47:05 51°16.291 2°54.202 3.6 57 16.1 101620 48
2011-08-17 06:47:10 51°16.291 2°54.201 3.8 27 16.1 101620 48
2011-08-17 06:47:14 51°16.291 2°54.2 3.8 54 16.1 101620 48
2011-08-17 06:47:20 51°16.291 2°54.198 4.1 21 16 101620 48
2011-08-17 06:47:25 51°16.292 2°54.196 3.4 56 16 101620 48
2011-08-17 06:47:30 51°16.292 2°54.195 4 27 16 101620 49
2011-08-17 06:47:34 51°16.292 2°54.194 3.5 58 16 101620 49
2011-08-17 06:47:40 51°16.292 2°54.191 3.3 26 16 101620 48
2011-08-17 06:47:45 51°16.292 2°54.19 3.1 50 16 101620 48
2011-08-17 06:47:50 51°16.293 2°54.188 3.2 22 16 101620 47
2011-08-17 06:47:55 51°16.293 2°54.186 3.2 51 16 101620 47
2011-08-17 06:48:00 51°16.293 2°54.185 3.1 23 16 101620 49
2011-08-17 06:48:05 51°16.293 2°54.183 3.4 53 16 101620 49
2011-08-17 06:48:10 51°16.293 2°54.182 3.4 21 16 101620 46
2011-08-17 06:48:14 51°16.293 2°54.18 2.8 60 16 101620 46
2011-08-17 06:48:20 51°16.293 2°54.179 3.2 27 16 101620 48
2011-08-17 06:48:25 51°16.294 2°54.177 3.8 58 16 101620 48
2011-08-17 06:48:30 51°16.294 2°54.175 3.4 28 16 101620 48
2011-08-17 06:48:34 51°16.294 2°54.174 2.9 56 16 101620 48
2011-08-17 06:48:40 51°16.294 2°54.172 3.5 31 16 101620 48
2011-08-17 06:48:45 51°16.295 2°54.17 3.4 11 16 101620 48
2011-08-17 06:48:50 51°16.297 2°54.168 3.1 29 16.1 101620 49
2011-08-17 06:48:54 51°16.299 2°54.166 3 55 16.1 101620 49
2011-08-17 06:49:00 51°16.301 2°54.164 3.2 22 16.1 101620 48
2011-08-17 06:49:05 51°16.304 2°54.162 2.9 51 16.1 101620 48
2011-08-17 06:49:10 51°16.307 2°54.161 2.6 20 16.1 101620 48
2011-08-17 06:49:14 51°16.31 2°54.16 2.7 55 16.1 101620 48
2011-08-17 06:49:20 51°16.314 2°54.16 2 23 16.1 101620 49
2011-08-17 06:49:25 51°16.317 2°54.16 0.6 55 16.1 101620 49
2011-08-17 06:49:30 51°16.321 2°54.161 0.4 21 16.1 101620 49
2011-08-17 06:49:34 51°16.323 2°54.163 0.6 52 16.1 101620 49
2011-08-17 06:49:39 51°16.326 2°54.165 0.6 34 16 101620 48
2011-08-17 06:49:45 51°16.33 2°54.169 1.5 43 16 101620 48
2011-08-17 06:49:50 51°16.332 2°54.173 2.3 40 16 101620 48
2011-08-17 06:49:55 51°16.334 2°54.177 2.5 35 16 101620 48
2011-08-17 06:50:00 51°16.336 2°54.182 2.2 30 16.1 101620 49
2011-08-17 06:50:05 51°16.338 2°54.188 2.5 26 16.1 101620 49
2011-08-17 06:50:10 51°16.339 2°54.193 2.8 24 16 101620 49
2011-08-17 06:50:14 51°16.339 2°54.198 2.7 20 16 101620 49
2011-08-17 06:50:20 51°16.339 2°54.205 3.2 18 16.1 101620 49
2011-08-17 06:50:25 51°16.338 2°54.211 3.6 19 16.1 101620 49
2011-08-17 06:50:30 51°16.336 2°54.216 3.6 15 16 101620 47
2011-08-17 06:50:35 51°16.335 2°54.222 3.8 12 16 101620 47
2011-08-17 06:50:40 51°16.332 2°54.227 5.2 9 16 101620 49
2011-08-17 06:50:45 51°16.329 2°54.232 4.2 7 16 101620 49
2011-08-17 06:50:50 51°16.326 2°54.236 4 7 16.1 101620 47
2011-08-17 06:50:54 51°16.322 2°54.24 4 3 16.1 101620 47
2011-08-17 06:51:00 51°16.317 2°54.244 4.3 -999 16.1 101620 49
2011-08-17 06:51:05 51°16.312 2°54.247 5 357 16.1 101620 49
2011-08-17 06:51:10 51°16.307 2°54.249 4.9 356 16.1 101620 48
2011-08-17 06:51:14 51°16.304 2°54.251 5 354 16.1 101620 48
2011-08-17 06:51:20 51°16.298 2°54.253 5.1 355 16.1 101620 48
2011-08-17 06:51:25 51°16.293 2°54.254 4.7 355 16.1 101620 48
2011-08-17 06:51:30 51°16.289 2°54.255 4.9 354 16.1 101620 49
2011-08-17 06:51:34 51°16.286 2°54.256 4.4 354 16.1 101620 49
2011-08-17 06:51:39 51°16.282 2°54.257 4.5 355 16 101610 48
2011-08-17 06:51:45 51°16.277 2°54.258 5 357 16 101610 48
2011-08-17 06:51:50 51°16.273 2°54.259 5.2 358 16 101620 48
2011-08-17 06:51:54 51°16.271 2°54.26 4.9 356 16 101620 48
2011-08-17 06:52:00 51°16.266 2°54.261 4.2 356 16 101610 47
2011-08-17 06:52:05 51°16.263 2°54.262 4.4 359 16 101610 47
2011-08-17 06:52:10 51°16.26 2°54.263 4.3 358 16 101620 48
2011-08-17 06:52:14 51°16.258 2°54.263 4.5 -999 16 101620 48
2011-08-17 06:52:20 51°16.255 2°54.264 2.6 -999 16 101610 49
2011-08-17 06:52:25 51°16.252 2°54.264 3.5 1 16 101610 49
2011-08-17 06:52:30 51°16.251 2°54.263 3.2 359 16 101610 48
2011-08-17 06:52:34 51°16.25 2°54.263 3.5 1 16 101610 48
2011-08-17 06:52:40 51°16.248 2°54.262 3.4 3 16 101620 48
2011-08-17 06:52:45 51°16.247 2°54.261 3.3 1 16 101620 48
2011-08-17 06:52:50 51°16.246 2°54.261 3.7 360 16 101620 48
2011-08-17 06:52:55 51°16.245 2°54.26 3.8 360 16 101620 48
2011-08-17 06:53:00 51°16.243 2°54.259 3.9 359 16 101620 49
2011-08-17 06:53:05 51°16.242 2°54.258 4 1 16 101620 49
2011-08-17 06:53:10 51°16.241 2°54.258 3.2 2 16 101620 49
2011-08-17 06:53:14 51°16.24 2°54.257 3 3 16 101620 49
2011-08-17 06:53:20 51°16.239 2°54.256 3 4 16.1 101610 48
2011-08-17 06:53:25 51°16.237 2°54.255 2.9 4 16.1 101610 48
2011-08-17 06:53:30 51°16.236 2°54.255 3.2 1 16.1 101620 46
2011-08-17 06:53:34 51°16.236 2°54.254 3.4 1 16.1 101620 46
2011-08-17 06:53:40 51°16.234 2°54.253 3.7 360 16 101620 47
2011-08-17 06:53:45 51°16.233 2°54.252 3.3 359 16 101620 47
2011-08-17 06:53:50 51°16.232 2°54.252 3.5 359 16 101620 49
2011-08-17 06:53:54 51°16.231 2°54.251 3.6 358 16 101620 49
2011-08-17 06:54:00 51°16.23 2°54.25 3.7 357 16.1 101610 48
2011-08-17 06:54:05 51°16.229 2°54.249 3.7 357 16.1 101610 48
2011-08-17 06:54:10 51°16.228 2°54.248 3.8 358 16.1 101620 48
2011-08-17 06:54:14 51°16.227 2°54.247 3.9 357 16.1 101620 48
2011-08-17 06:54:20 51°16.226 2°54.246 4.2 359 16.1 101620 48
2011-08-17 06:54:25 51°16.225 2°54.245 4.3 359 16.1 101620 48
2011-08-17 06:54:30 51°16.224 2°54.244 3.6 2 16.1 101620 48
2011-08-17 06:54:34 51°16.224 2°54.243 3.1 2 16.1 101620 48
2011-08-17 06:54:40 51°16.223 2°54.242 2.9 3 16.1 101610 48
2011-08-17 06:54:45 51°16.221 2°54.241 3.8 -999 16.1 101610 48
2011-08-17 06:54:50 51°16.221 2°54.24 3.7 357 16.1 101620 48
2011-08-17 06:54:55 51°16.22 2°54.239 3.6 357 16.1 101620 48
2011-08-17 06:55:00 51°16.219 2°54.238 3.7 355 16.1 101620 48
2011-08-17 06:55:05 51°16.218 2°54.237 3.2 359 16.1 101620 48
2011-08-17 06:55:10 51°16.217 2°54.236 3 355 16 101620 47
2011-08-17 06:55:15 51°16.216 2°54.235 3.2 354 16 101620 47
2011-08-17 06:55:20 51°16.216 2°54.234 4 355 16.1 101620 48
2011-08-17 06:55:25 51°16.215 2°54.233 3.7 354 16.1 101620 48
2011-08-17 06:55:30 51°16.214 2°54.232 3.7 355 16.1 101620 49
2011-08-17 06:55:34 51°16.213 2°54.231 4 357 16.1 101620 49
2011-08-17 06:55:40 51°16.212 2°54.229 4.4 358 16.1 101620 48
2011-08-17 06:55:45 51°16.212 2°54.228 3.2 357 16.1 101620 48
2011-08-17 06:55:50 51°16.211 2°54.227 3.6 356 16.1 101620 49
2011-08-17 06:55:54 51°16.21 2°54.226 3.8 357 16.1 101620 49
2011-08-17 06:56:00 51°16.209 2°54.225 3.8 357 16.1 101620 49
2011-08-17 06:56:05 51°16.208 2°54.224 3.1 1 16.1 101620 49
2011-08-17 06:56:10 51°16.208 2°54.222 2.7 1 16.1 101610 46
2011-08-17 06:56:14 51°16.207 2°54.222 3.5 2 16.1 101610 46
2011-08-17 06:56:20 51°16.206 2°54.22 3.6 1 16.1 101620 49
2011-08-17 06:56:25 51°16.206 2°54.219 3.6 -999 16.1 101620 49
2011-08-17 06:56:30 51°16.205 2°54.218 3.7 1 16.1 101620 49
2011-08-17 06:56:34 51°16.204 2°54.217 4 -999 16.1 101620 49
2011-08-17 06:56:40 51°16.203 2°54.215 3.5 -999 16.1 101620 48
2011-08-17 06:56:45 51°16.203 2°54.214 3.6 1 16.1 101620 48
2011-08-17 06:56:50 51°16.202 2°54.213 3.5 -999 16.1 101620 48
2011-08-17 06:56:55 51°16.201 2°54.211 3 3 16.1 101620 48
2011-08-17 06:57:00 51°16.2 2°54.21 3 2 16.1 101620 48
2011-08-17 06:57:05 51°16.2 2°54.209 2.6 5 16.1 101620 48
2011-08-17 06:57:10 51°16.199 2°54.208 3.3 2 16.1 101620 48
2011-08-17 06:57:14 51°16.199 2°54.207 3.3 3 16.1 101620 48
2011-08-17 06:57:20 51°16.198 2°54.205 3.3 2 16.1 101610 49
2011-08-17 06:57:25 51°16.197 2°54.204 3.6 2 16.1 101610 49
2011-08-17 06:57:30 51°16.196 2°54.203 3.3 2 16.1 101610 49
2011-08-17 06:57:34 51°16.196 2°54.201 3.4 2 16.1 101610 49
2011-08-17 06:57:40 51°16.195 2°54.2 3.1 1 16.1 101620 48
2011-08-17 06:57:45 51°16.194 2°54.199 3.3 5 16.1 101620 48
2011-08-17 06:57:50 51°16.194 2°54.197 3.1 6 16.1 101620 48
2011-08-17 06:57:55 51°16.193 2°54.196 3.4 5 16.1 101620 48
2011-08-17 06:58:00 51°16.192 2°54.195 3.6 1 16.1 101610 49
2011-08-17 06:58:05 51°16.192 2°54.194 3.6 1 16.1 101610 49
2011-08-17 06:58:10 51°16.191 2°54.192 3.2 2 16.1 101620 48
2011-08-17 06:58:14 51°16.191 2°54.191 3.3 1 16.1 101620 48
2011-08-17 06:58:20 51°16.19 2°54.19 3.4 1 16.1 101620 47
2011-08-17 06:58:25 51°16.189 2°54.188 3.4 1 16.1 101620 47
2011-08-17 06:58:30 51°16.189 2°54.187 3.6 2 16 101620 49
2011-08-17 06:58:34 51°16.188 2°54.186 2.9 2 16 101620 49
2011-08-17 06:58:39 51°16.188 2°54.185 2.7 -999 16 101620 48
2011-08-17 06:58:45 51°16.187 2°54.183 2.9 -999 16 101620 48
2011-08-17 06:58:50 51°16.186 2°54.182 2.9 2 16 101620 47
2011-08-17 06:58:55 51°16.186 2°54.18 3 357 16 101620 47
2011-08-17 06:59:00 51°16.185 2°54.179 3.3 358 16 101620 48
2011-08-17 06:59:05 51°16.185 2°54.178 2.7 358 16 101620 48
2011-08-17 06:59:10 51°16.184 2°54.176 2.9 2 16 101620 49
2011-08-17 06:59:14 51°16.183 2°54.175 3.4 359 16 101620 49
2011-08-17 06:59:20 51°16.183 2°54.174 3.3 4 16 101620 49
2011-08-17 06:59:25 51°16.182 2°54.172 3.3 3 16 101620 49
2011-08-17 06:59:30 51°16.182 2°54.171 3.2 4 16 101620 48
2011-08-17 06:59:34 51°16.181 2°54.17 3.8 2 16 101620 48
2011-08-17 06:59:40 51°16.18 2°54.168 3.7 1 16 101620 49
2011-08-17 06:59:45 51°16.18 2°54.167 3 2 16 101620 49
2011-08-17 06:59:50 51°16.179 2°54.165 3.3 1 16 101620 48
2011-08-17 06:59:55 51°16.179 2°54.164 3.1 2 16 101620 48
2011-08-17 07:00:00 51°16.178 2°54.163 3.6 -999 16 101620 48
2011-08-17 07:00:05 51°16.177 2°54.162 3.3 -999 16 101620 48
2011-08-17 07:00:10 51°16.177 2°54.16 3 1 16 101620 49
2011-08-17 07:00:14 51°16.176 2°54.159 3 359 16 101620 49
2011-08-17 07:00:20 51°16.176 2°54.157 3.6 358 16 101620 48
2011-08-17 07:00:25 51°16.175 2°54.156 3 359 16 101620 48
2011-08-17 07:00:30 51°16.174 2°54.155 2.9 359 16 101620 48
2011-08-17 07:00:34 51°16.174 2°54.154 3.1 358 16 101620 48
2011-08-17 07:00:39 51°16.173 2°54.152 3.1 358 16 101620 49
2011-08-17 07:00:45 51°16.173 2°54.151 3.3 1 16 101620 49
2011-08-17 07:00:50 51°16.172 2°54.149 3.1 1 16 101620 48
2011-08-17 07:00:54 51°16.172 2°54.148 3.3 -999 16 101620 48
2011-08-17 07:01:00 51°16.171 2°54.147 2.8 2 16 101620 49
2011-08-17 07:01:05 51°16.17 2°54.145 3.1 1 16 101620 49
2011-08-17 07:01:10 51°16.17 2°54.144 3.1 2 16 101620 48
2011-08-17 07:01:14 51°16.169 2°54.143 3.1 3 16 101620 48
2011-08-17 07:01:20 51°16.168 2°54.141 3.1 2 16 101630 49
2011-08-17 07:01:25 51°16.168 2°54.14 3.4 1 16 101630 49
2011-08-17 07:01:30 51°16.167 2°54.138 3.2 3 16 101630 48
2011-08-17 07:01:34 51°16.167 2°54.137 3.4 359 16 101630 48
2011-08-17 07:01:40 51°16.166 2°54.135 1.9 1 16 101620 49
2011-08-17 07:01:45 51°16.165 2°54.134 3.3 359 16 101620 49
2011-08-17 07:01:50 51°16.165 2°54.133 3.9 359 16 101620 48
2011-08-17 07:01:55 51°16.164 2°54.132 3.6 359 16 101620 48
2011-08-17 07:02:00 51°16.163 2°54.13 3.3 360 16 101620 48
2011-08-17 07:02:05 51°16.163 2°54.129 3.3 357 16 101620 48
2011-08-17 07:02:10 51°16.162 2°54.127 3.6 1 16 101630 49
2011-08-17 07:02:14 51°16.162 2°54.126 3.2 359 16 101630 49
2011-08-17 07:02:20 51°16.161 2°54.124 3.5 359 16 101620 49
2011-08-17 07:02:25 51°16.161 2°54.123 3.7 359 16 101620 49
2011-08-17 07:02:30 51°16.16 2°54.122 3.5 359 16 101620 49
2011-08-17 07:02:34 51°16.159 2°54.121 3.6 1 16 101620 49
2011-08-17 07:02:40 51°16.159 2°54.119 3.4 359 16 101630 48
2011-08-17 07:02:45 51°16.158 2°54.117 3.6 358 16 101630 48
2011-08-17 07:02:50 51°16.158 2°54.116 3.5 357 16.1 101630 48
2011-08-17 07:02:54 51°16.157 2°54.115 3.5 357 16.1 101630 48
2011-08-17 07:02:59 51°16.157 2°54.114 3.1 357 16.1 101620 49
2011-08-17 07:03:05 51°16.156 2°54.112 3.6 357 16.1 101620 49
2011-08-17 07:03:10 51°16.155 2°54.111 3.9 355 16.1 101620 49
2011-08-17 07:03:14 51°16.155 2°54.109 2.8 357 16.1 101620 49
2011-08-17 07:03:20 51°16.154 2°54.108 3 359 16.1 101630 49
2011-08-17 07:03:25 51°16.154 2°54.107 3.2 1 16.1 101630 49
2011-08-17 07:03:30 51°16.153 2°54.105 3 360 16.1 101620 48
2011-08-17 07:03:34 51°16.153 2°54.104 3.1 357 16.1 101620 48
2011-08-17 07:03:40 51°16.152 2°54.102 3.5 359 16.1 101620 48
2011-08-17 07:03:45 51°16.151 2°54.101 3.6 -999 16.1 101620 48
2011-08-17 07:03:50 51°16.151 2°54.099 3.4 1 16.1 101630 48
2011-08-17 07:03:55 51°16.15 2°54.098 3.2 -999 16.1 101630 48
2011-08-17 07:04:00 51°16.15 2°54.097 3.4 358 16.1 101630 48
2011-08-17 07:04:05 51°16.149 2°54.095 3.6 358 16.1 101630 48
2011-08-17 07:04:10 51°16.148 2°54.093 3.7 357 16.1 101620 47
2011-08-17 07:04:14 51°16.148 2°54.092 3.4 356 16.1 101620 47
2011-08-17 07:04:20 51°16.147 2°54.09 3.5 357 16.1 101620 48
2011-08-17 07:04:25 51°16.147 2°54.089 3.2 360 16.1 101620 48
2011-08-17 07:04:30 51°16.146 2°54.088 3.5 358 16.1 101620 49
2011-08-17 07:04:34 51°16.146 2°54.087 3.6 359 16.1 101620 49
2011-08-17 07:04:40 51°16.145 2°54.085 3.3 359 16.1 101620 48
2011-08-17 07:04:45 51°16.145 2°54.083 3 358 16.1 101620 48
2011-08-17 07:04:50 51°16.144 2°54.082 3.1 359 16.1 101620 49
2011-08-17 07:04:54 51°16.143 2°54.081 3.3 359 16.1 101620 49
2011-08-17 07:05:00 51°16.143 2°54.079 3.5 358 16.1 101630 48
2011-08-17 07:05:05 51°16.143 2°54.078 3.3 360 16.1 101630 48
2011-08-17 07:05:10 51°16.142 2°54.077 3.6 -999 16.1 101620 48
2011-08-17 07:05:14 51°16.142 2°54.076 3.5 1 16.1 101620 48
2011-08-17 07:05:20 51°16.141 2°54.074 3.6 360 16.1 101620 49
2011-08-17 07:05:25 51°16.14 2°54.073 3.9 358 16.1 101620 49
2011-08-17 07:05:30 51°16.14 2°54.072 3.7 360 16.1 101620 48
2011-08-17 07:05:35 51°16.139 2°54.07 3 1 16.1 101620 48
2011-08-17 07:05:39 51°16.139 2°54.069 3.7 356 16.1 101620 49
2011-08-17 07:05:45 51°16.138 2°54.067 3.5 357 16.1 101620 49
2011-08-17 07:05:50 51°16.137 2°54.066 3.6 358 16.1 101630 49
2011-08-17 07:05:55 51°16.137 2°54.065 3.6 359 16.1 101630 49
2011-08-17 07:06:00 51°16.136 2°54.064 3.5 359 16.1 101630 49
2011-08-17 07:06:05 51°16.136 2°54.062 3.4 -999 16.1 101630 49
2011-08-17 07:06:10 51°16.135 2°54.061 3.6 359 16.1 101630 49
2011-08-17 07:06:14 51°16.135 2°54.06 3.5 359 16.1 101630 49
2011-08-17 07:06:20 51°16.134 2°54.058 3.5 359 16.1 101630 48
2011-08-17 07:06:25 51°16.133 2°54.057 3.6 359 16.1 101630 48
2011-08-17 07:06:30 51°16.133 2°54.056 3.6 1 16.1 101630 48
2011-08-17 07:06:34 51°16.132 2°54.054 3 359 16.1 101630 48
2011-08-17 07:06:40 51°16.132 2°54.053 3.3 360 16.1 101630 48
2011-08-17 07:06:45 51°16.131 2°54.051 3.2 359 16.1 101630 48
2011-08-17 07:06:50 51°16.131 2°54.05 3.3 1 16.1 101630 46
2011-08-17 07:06:54 51°16.13 2°54.049 2.9 3 16.1 101630 46
2011-08-17 07:07:00 51°16.13 2°54.047 3.1 3 16.1 101620 48
2011-08-17 07:07:05 51°16.129 2°54.046 2.7 1 16.1 101620 48
2011-08-17 07:07:10 51°16.128 2°54.045 3.1 3 16.1 101630 48
2011-08-17 07:07:14 51°16.128 2°54.043 3.7 1 16.1 101630 48
2011-08-17 07:07:20 51°16.127 2°54.042 3.8 360 16.1 101630 49
2011-08-17 07:07:25 51°16.127 2°54.04 3.7 1 16.1 101630 49
2011-08-17 07:07:30 51°16.126 2°54.039 3.2 -999 16.1 101630 49
2011-08-17 07:07:35 51°16.126 2°54.038 3.5 -999 16.1 101630 49
2011-08-17 07:07:39 51°16.125 2°54.037 2.9 2 16.1 101630 48
2011-08-17 07:07:45 51°16.125 2°54.035 3.3 1 16.1 101630 48
2011-08-17 07:07:50 51°16.124 2°54.034 2.8 4 16.1 101630 49
2011-08-17 07:07:54 51°16.124 2°54.033 3 4 16.1 101630 49
2011-08-17 07:08:00 51°16.123 2°54.031 2.9 2 16.1 101630 48
2011-08-17 07:08:05 51°16.123 2°54.03 3 4 16.1 101630 48
2011-08-17 07:08:10 51°16.122 2°54.028 3.6 3 16.1 101630 49
2011-08-17 07:08:14 51°16.122 2°54.027 3.3 360 16.1 101630 49
2011-08-17 07:08:20 51°16.121 2°54.026 3.4 358 16.1 101630 48
2011-08-17 07:08:25 51°16.12 2°54.024 3.6 358 16.1 101630 48
2011-08-17 07:08:30 51°16.12 2°54.023 3.5 357 16.1 101630 49
2011-08-17 07:08:34 51°16.119 2°54.022 3 358 16.1 101630 49
2011-08-17 07:08:40 51°16.119 2°54.02 3.5 356 16.1 101630 48
2011-08-17 07:08:45 51°16.118 2°54.019 3.1 358 16.1 101630 48
2011-08-17 07:08:50 51°16.118 2°54.018 3.4 357 16.1 101630 48
2011-08-17 07:08:54 51°16.117 2°54.016 3.5 360 16.1 101630 48
2011-08-17 07:09:00 51°16.117 2°54.015 3.5 2 16.1 101630 49
2011-08-17 07:09:05 51°16.116 2°54.013 2.6 358 16.1 101630 49
2011-08-17 07:09:10 51°16.115 2°54.012 3.1 359 16.1 101630 48
2011-08-17 07:09:14 51°16.115 2°54.011 3 3 16.1 101630 48
2011-08-17 07:09:20 51°16.114 2°54.009 2.3 6 16.1 101630 49
2011-08-17 07:09:25 51°16.114 2°54.008 2.9 4 16.1 101630 49
2011-08-17 07:09:30 51°16.113 2°54.006 3.1 3 16.1 101630 46
2011-08-17 07:09:34 51°16.113 2°54.005 3 4 16.1 101630 46
2011-08-17 07:09:39 51°16.112 2°54.004 2.9 4 16.1 101630 49
2011-08-17 07:09:45 51°16.112 2°54.002 3.1 1 16.1 101630 49
2011-08-17 07:09:50 51°16.111 2°54.001 2.9 2 16.1 101630 48
2011-08-17 07:09:54 51°16.111 2°54 3.3 1 16.1 101630 48
2011-08-17 07:09:59 51°16.11 2°53.998 3.2 5 16.1 101630 48
2011-08-17 07:10:05 51°16.109 2°53.997 3.5 3 16.1 101630 48
2011-08-17 07:10:10 51°16.109 2°53.995 3.4 6 16.1 101630 48
2011-08-17 07:10:14 51°16.108 2°53.994 2.6 6 16.1 101630 48
2011-08-17 07:10:20 51°16.107 2°53.993 3.2 7 16.1 101630 49
2011-08-17 07:10:25 51°16.107 2°53.991 3.6 7 16.1 101630 49
2011-08-17 07:10:30 51°16.106 2°53.99 3.7 7 16.1 101630 48
2011-08-17 07:10:35 51°16.106 2°53.988 3.5 7 16.1 101630 48
2011-08-17 07:10:40 51°16.105 2°53.987 3.6 6 16.1 101630 49
2011-08-17 07:10:45 51°16.105 2°53.985 2.6 7 16.1 101630 49
2011-08-17 07:10:50 51°16.104 2°53.984 3.2 5 16.1 101630 49
2011-08-17 07:10:54 51°16.104 2°53.983 3.4 5 16.1 101630 49
2011-08-17 07:11:00 51°16.103 2°53.981 3.1 6 16.1 101640 48
2011-08-17 07:11:05 51°16.102 2°53.98 3.1 3 16.1 101640 48
2011-08-17 07:11:10 51°16.102 2°53.979 2.6 3 16.1 101630 49
2011-08-17 07:11:14 51°16.101 2°53.978 2.9 5 16.1 101630 49
2011-08-17 07:11:20 51°16.1 2°53.976 3.5 1 16.1 101630 49
2011-08-17 07:11:25 51°16.1 2°53.974 3 5 16.1 101630 49
2011-08-17 07:11:30 51°16.099 2°53.973 3.2 4 16.1 101630 49
2011-08-17 07:11:34 51°16.099 2°53.972 2.6 3 16.1 101630 49
2011-08-17 07:11:40 51°16.098 2°53.97 3.1 5 16.1 101640 49
2011-08-17 07:11:45 51°16.097 2°53.969 3.5 5 16.1 101640 49
2011-08-17 07:11:50 51°16.097 2°53.967 3.1 6 16.1 101640 48
2011-08-17 07:11:54 51°16.096 2°53.966 3.5 6 16.1 101640 48
2011-08-17 07:12:00 51°16.096 2°53.964 3.2 6 16.1 101640 48
2011-08-17 07:12:05 51°16.095 2°53.963 3.1 5 16.1 101640 48
2011-08-17 07:12:10 51°16.095 2°53.961 3.4 7 16.1 101640 46
2011-08-17 07:12:14 51°16.094 2°53.96 3.2 5 16.1 101640 46
2011-08-17 07:12:20 51°16.093 2°53.959 3.2 6 16.1 101630 48
2011-08-17 07:12:25 51°16.092 2°53.958 2.8 4 16.1 101630 48
2011-08-17 07:12:30 51°16.09 2°53.957 3.3 5 16.1 101630 48
2011-08-17 07:12:35 51°16.089 2°53.957 3.8 8 16.1 101630 48
2011-08-17 07:12:40 51°16.087 2°53.956 4 10 16.1 101640 48
2011-08-17 07:12:45 51°16.085 2°53.956 3.8 9 16.1 101640 48
2011-08-17 07:12:50 51°16.083 2°53.957 3.8 11 16.1 101630 49
2011-08-17 07:12:55 51°16.08 2°53.958 4.2 10 16.1 101630 49
2011-08-17 07:13:00 51°16.077 2°53.96 3.7 14 16.1 101630 49
2011-08-17 07:13:05 51°16.075 2°53.963 3.9 16 16.1 101630 49
2011-08-17 07:13:10 51°16.073 2°53.967 3.4 19 16.2 101630 48
2011-08-17 07:13:15 51°16.071 2°53.971 3.5 21 16.2 101630 48
2011-08-17 07:13:20 51°16.069 2°53.976 3 22 16.2 101640 49
2011-08-17 07:13:25 51°16.069 2°53.982 2.8 26 16.2 101640 49
2011-08-17 07:13:30 51°16.068 2°53.988 2 28 16.2 101640 48
2011-08-17 07:13:35 51°16.069 2°53.994 2.2 37 16.2 101640 48
2011-08-17 07:13:40 51°16.07 2°54 2 44 16.2 101640 49
2011-08-17 07:13:45 51°16.072 2°54.005 1.6 59 16.2 101640 49
2011-08-17 07:13:50 51°16.074 2°54.01 1.6 26 16.2 101640 49
2011-08-17 07:13:54 51°16.077 2°54.014 0.7 53 16.2 101640 49
2011-08-17 07:14:00 51°16.081 2°54.019 0.2 29 16.2 101640 49
2011-08-17 07:14:05 51°16.085 2°54.022 0.1 55 16.2 101640 49
2011-08-17 07:14:10 51°16.089 2°54.024 2.4 18 16.2 101640 48
2011-08-17 07:14:14 51°16.093 2°54.024 1.9 301 16.2 101640 48
2011-08-17 07:14:20 51°16.099 2°54.024 2.9 260 16.2 101640 48
2011-08-17 07:14:25 51°16.105 2°54.023 3.3 303 16.2 101640 48
2011-08-17 07:14:30 51°16.11 2°54.02 4.7 258 16.2 101650 48
2011-08-17 07:14:34 51°16.115 2°54.017 3.8 278 16.2 101650 48
2011-08-17 07:14:40 51°16.121 2°54.011 4.4 248 16.2 101640 48
2011-08-17 07:14:45 51°16.128 2°54.005 4.9 300 16.2 101640 48
2011-08-17 07:14:50 51°16.136 2°53.997 5 244 16.2 101640 47
2011-08-17 07:14:54 51°16.143 2°53.991 5.4 303 16.2 101640 47
2011-08-17 07:15:00 51°16.154 2°53.979 5.2 24 16.2 101640 48
2011-08-17 07:15:05 51°16.164 2°53.969 5.6 302 16.2 101640 48
2011-08-17 07:15:10 51°16.175 2°53.958 6.1 26 16.2 101640 48
2011-08-17 07:15:15 51°16.187 2°53.946 7 308 16.2 101640 48
2011-08-17 07:15:20 51°16.2 2°53.933 6.1 21 16.2 101640 49
2011-08-17 07:15:25 51°16.213 2°53.92 5.3 305 16.2 101640 49
2011-08-17 07:15:30 51°16.226 2°53.907 7.8 24 16.3 101640 49
2011-08-17 07:15:34 51°16.237 2°53.895 6.9 304 16.3 101640 49
2011-08-17 07:15:40 51°16.253 2°53.876 6.3 20 16.2 101630 48
2011-08-17 07:15:45 51°16.267 2°53.861 6 301 16.2 101630 48
2011-08-17 07:15:50 51°16.28 2°53.844 8.3 21 16.2 101640 49
2011-08-17 07:15:55 51°16.294 2°53.828 6.2 300 16.2 101640 49
2011-08-17 07:16:00 51°16.308 2°53.812 7.5 24 16.2 101630 48
2011-08-17 07:16:05 51°16.323 2°53.796 6.1 301 16.2 101630 48
2011-08-17 07:16:10 51°16.337 2°53.78 7.3 22 16.2 101630 48
2011-08-17 07:16:14 51°16.348 2°53.766 7.4 303 16.2 101630 48
2011-08-17 07:16:20 51°16.365 2°53.746 6.4 22 16.3 101630 48
2011-08-17 07:16:25 51°16.379 2°53.729 6.7 301 16.3 101630 48
2011-08-17 07:16:30 51°16.393 2°53.712 6.8 22 16.3 101630 48
2011-08-17 07:16:35 51°16.407 2°53.695 6.4 286 16.3 101630 48
2011-08-17 07:16:39 51°16.418 2°53.681 6 27 16.3 101640 48
2011-08-17 07:16:45 51°16.435 2°53.661 6.8 305 16.3 101640 48
2011-08-17 07:16:50 51°16.449 2°53.644 6.4 23 16.3 101630 48
2011-08-17 07:16:54 51°16.46 2°53.63 6.6 306 16.3 101630 48
2011-08-17 07:17:00 51°16.477 2°53.61 7.2 22 16.3 101630 49
2011-08-17 07:17:05 51°16.491 2°53.593 7.4 303 16.3 101630 49
2011-08-17 07:17:10 51°16.506 2°53.577 7.3 26 16.3 101640 48
2011-08-17 07:17:14 51°16.517 2°53.564 6.8 304 16.3 101640 48
2011-08-17 07:17:20 51°16.534 2°53.544 7.3 26 16.3 101630 48
2011-08-17 07:17:25 51°16.548 2°53.528 7.9 308 16.3 101630 48
2011-08-17 07:17:30 51°16.563 2°53.511 7.9 26 16.3 101630 47
2011-08-17 07:17:34 51°16.574 2°53.498 8.9 279 16.3 101630 47
2011-08-17 07:17:40 51°16.591 2°53.479 6.5 26 16.3 101630 48
2011-08-17 07:17:45 51°16.606 2°53.463 8.1 306 16.3 101630 48
2011-08-17 07:17:50 51°16.62 2°53.446 6.4 24 16.3 101630 48
2011-08-17 07:17:55 51°16.635 2°53.43 5.9 310 16.3 101630 48
2011-08-17 07:18:00 51°16.649 2°53.415 6.8 27 16.4 101640 49
2011-08-17 07:18:05 51°16.664 2°53.398 9.2 302 16.4 101640 49
2011-08-17 07:18:10 51°16.678 2°53.381 6.3 20 16.3 101630 48
2011-08-17 07:18:14 51°16.689 2°53.368 6.3 309 16.3 101630 48
2011-08-17 07:18:20 51°16.706 2°53.347 7 23 16.4 101630 48
2011-08-17 07:18:25 51°16.719 2°53.329 6.3 304 16.4 101630 48
2011-08-17 07:18:30 51°16.733 2°53.311 6.4 27 16.4 101630 49
2011-08-17 07:18:34 51°16.744 2°53.297 6.2 307 16.4 101630 49
2011-08-17 07:18:40 51°16.76 2°53.275 8.6 22 16.4 101630 48
2011-08-17 07:18:45 51°16.773 2°53.256 6.7 301 16.4 101630 48
2011-08-17 07:18:50 51°16.787 2°53.238 6.4 24 16.4 101640 48
2011-08-17 07:18:54 51°16.797 2°53.223 7.1 305 16.4 101640 48
2011-08-17 07:18:59 51°16.811 2°53.205 7.7 24 16.4 101640 48
2011-08-17 07:19:05 51°16.827 2°53.183 5.5 308 16.4 101640 48
2011-08-17 07:19:10 51°16.84 2°53.164 6.3 21 16.4 101630 49
2011-08-17 07:19:14 51°16.85 2°53.15 6.4 308 16.4 101630 49
2011-08-17 07:19:20 51°16.866 2°53.129 5.5 24 16.4 101630 49
2011-08-17 07:19:25 51°16.879 2°53.111 6.5 309 16.4 101630 49
2011-08-17 07:19:30 51°16.893 2°53.094 7.4 27 16.4 101630 48
2011-08-17 07:19:34 51°16.903 2°53.08 6.2 279 16.4 101630 48
2011-08-17 07:19:40 51°16.919 2°53.059 6 29 16.4 101640 48
2011-08-17 07:19:45 51°16.932 2°53.042 6.4 307 16.4 101640 48
2011-08-17 07:19:50 51°16.945 2°53.025 5.9 21 16.4 101630 48
2011-08-17 07:19:55 51°16.958 2°53.008 6.7 303 16.4 101630 48
2011-08-17 07:20:00 51°16.971 2°52.99 7.5 29 16.4 101630 48
2011-08-17 07:20:05 51°16.984 2°52.972 5.7 303 16.4 101630 48
2011-08-17 07:20:10 51°16.998 2°52.955 6.9 29 16.4 101640 47
2011-08-17 07:20:15 51°17.011 2°52.937 7.2 308 16.4 101640 47
2011-08-17 07:20:20 51°17.025 2°52.92 6.4 26 16.4 101630 49
2011-08-17 07:20:25 51°17.038 2°52.902 7 303 16.4 101630 49
2011-08-17 07:20:30 51°17.052 2°52.884 5.3 21 16.4 101640 48
2011-08-17 07:20:34 51°17.063 2°52.871 4.9 303 16.4 101640 48
2011-08-17 07:20:40 51°17.08 2°52.85 6.4 25 16.4 101640 48
2011-08-17 07:20:45 51°17.094 2°52.833 5.5 303 16.4 101640 48
2011-08-17 07:20:50 51°17.108 2°52.816 5.2 22 16.4 101640 48
2011-08-17 07:20:54 51°17.119 2°52.803 4.5 307 16.4 101640 48
2011-08-17 07:21:00 51°17.136 2°52.783 6.2 29 16.4 101640 49
2011-08-17 07:21:05 51°17.151 2°52.767 4.8 301 16.4 101640 49
2011-08-17 07:21:10 51°17.165 2°52.751 5.5 20 16.4 101630 48
2011-08-17 07:21:14 51°17.176 2°52.738 6.6 304 16.4 101630 48
2011-08-17 07:21:20 51°17.193 2°52.717 5.3 22 16.4 101640 48
2011-08-17 07:21:25 51°17.207 2°52.701 5.3 307 16.4 101640 48
2011-08-17 07:21:30 51°17.22 2°52.683 5.2 25 16.4 101640 49
2011-08-17 07:21:34 51°17.231 2°52.67 5.5 280 16.4 101640 49
2011-08-17 07:21:40 51°17.248 2°52.649 6.5 22 16.5 101630 48
2011-08-17 07:21:45 51°17.261 2°52.631 4.9 306 16.5 101630 48
2011-08-17 07:21:50 51°17.275 2°52.614 5.2 23 16.5 101630 49
2011-08-17 07:21:55 51°17.289 2°52.596 6.5 306 16.5 101630 49
2011-08-17 07:21:59 51°17.3 2°52.581 5.5 27 16.5 101630 48
2011-08-17 07:22:05 51°17.316 2°52.559 4.8 307 16.5 101630 48
2011-08-17 07:22:10 51°17.329 2°52.541 5.9 20 16.5 101630 48
2011-08-17 07:22:14 51°17.339 2°52.526 6.5 303 16.5 101630 48
2011-08-17 07:22:20 51°17.355 2°52.503 6 21 16.5 101630 48
2011-08-17 07:22:25 51°17.368 2°52.485 6.3 307 16.5 101630 48
2011-08-17 07:22:30 51°17.381 2°52.466 5.7 20 16.5 101630 49
2011-08-17 07:22:34 51°17.392 2°52.451 5 305 16.5 101630 49
2011-08-17 07:22:40 51°17.408 2°52.43 4.6 22 16.5 101630 49
2011-08-17 07:22:45 51°17.422 2°52.412 4.6 302 16.5 101630 49
2011-08-17 07:22:50 51°17.435 2°52.394 5 20 16.5 101630 47
2011-08-17 07:22:54 51°17.446 2°52.38 4.8 307 16.5 101630 47
2011-08-17 07:23:00 51°17.463 2°52.359 5.6 21 16.5 101630 49
2011-08-17 07:23:05 51°17.476 2°52.342 4.9 303 16.5 101630 49
2011-08-17 07:23:10 51°17.49 2°52.324 5.1 25 16.5 101630 48
2011-08-17 07:23:14 51°17.501 2°52.31 5.2 306 16.5 101630 48
2011-08-17 07:23:20 51°17.517 2°52.29 5.3 21 16.5 101630 49
2011-08-17 07:23:25 51°17.531 2°52.272 4.9 302 16.5 101630 49
2011-08-17 07:23:30 51°17.545 2°52.255 6.3 21 16.6 101630 48
2011-08-17 07:23:34 51°17.556 2°52.241 5.1 282 16.6 101630 48
2011-08-17 07:23:40 51°17.573 2°52.22 5.4 22 16.6 101630 49
2011-08-17 07:23:45 51°17.586 2°52.203 5.8 310 16.6 101630 49
2011-08-17 07:23:50 51°17.6 2°52.184 5.5 24 16.6 101630 49
2011-08-17 07:23:55 51°17.614 2°52.166 6.1 308 16.6 101630 49
2011-08-17 07:24:00 51°17.627 2°52.148 5.7 21 16.6 101630 48
2011-08-17 07:24:05 51°17.641 2°52.13 5.3 308 16.6 101630 48
2011-08-17 07:24:10 51°17.654 2°52.111 5.5 20 16.6 101630 48
2011-08-17 07:24:14 51°17.664 2°52.096 6.7 303 16.6 101630 48
2011-08-17 07:24:20 51°17.679 2°52.073 6.7 26 16.6 101630 49
2011-08-17 07:24:25 51°17.692 2°52.053 6.2 309 16.6 101630 49
2011-08-17 07:24:30 51°17.704 2°52.033 5.9 23 16.6 101630 49
2011-08-17 07:24:34 51°17.714 2°52.017 6.4 307 16.6 101630 49
2011-08-17 07:24:40 51°17.729 2°51.993 5.6 22 16.6 101620 49
2011-08-17 07:24:45 51°17.741 2°51.972 6.5 308 16.6 101620 49
2011-08-17 07:24:50 51°17.753 2°51.952 6.9 29 16.6 101630 49
2011-08-17 07:24:54 51°17.763 2°51.936 7.2 309 16.6 101630 49
2011-08-17 07:25:00 51°17.777 2°51.911 6.3 27 16.6 101630 49
2011-08-17 07:25:05 51°17.79 2°51.891 8.5 307 16.6 101630 49
2011-08-17 07:25:10 51°17.802 2°51.871 7.2 23 16.6 101620 48
2011-08-17 07:25:14 51°17.811 2°51.855 6.6 307 16.6 101620 48
2011-08-17 07:25:20 51°17.826 2°51.831 7.2 29 16.6 101620 49
2011-08-17 07:25:25 51°17.839 2°51.811 5.4 305 16.6 101620 49
2011-08-17 07:25:30 51°17.851 2°51.791 6.6 27 16.6 101620 47
2011-08-17 07:25:34 51°17.861 2°51.775 6 279 16.6 101620 47
2011-08-17 07:25:39 51°17.874 2°51.755 6.1 22 16.6 101620 49
2011-08-17 07:25:45 51°17.889 2°51.731 5.3 304 16.6 101620 49
2011-08-17 07:25:50 51°17.902 2°51.712 6.6 23 16.6 101620 49
2011-08-17 07:25:55 51°17.915 2°51.694 7.2 306 16.6 101620 49
2011-08-17 07:26:00 51°17.929 2°51.675 6.6 22 16.6 101630 48
2011-08-17 07:26:05 51°17.942 2°51.658 5 304 16.6 101630 48
2011-08-17 07:26:10 51°17.956 2°51.64 5.1 21 16.6 101630 49
2011-08-17 07:26:14 51°17.967 2°51.626 6.1 309 16.6 101630 49
2011-08-17 07:26:20 51°17.984 2°51.605 5.8 25 16.6 101620 49
2011-08-17 07:26:25 51°17.997 2°51.587 7 307 16.6 101620 49
2011-08-17 07:26:30 51°18.011 2°51.569 7.8 22 16.6 101630 49
2011-08-17 07:26:34 51°18.022 2°51.555 6.6 284 16.6 101630 49
2011-08-17 07:26:40 51°18.039 2°51.533 7.4 25 16.6 101630 49
2011-08-17 07:26:45 51°18.052 2°51.515 7.5 301 16.6 101630 49
2011-08-17 07:26:50 51°18.066 2°51.497 5.4 27 16.7 101620 49
2011-08-17 07:26:55 51°18.08 2°51.478 6.9 309 16.7 101620 49
2011-08-17 07:27:00 51°18.093 2°51.46 6.3 19 16.7 101630 48
2011-08-17 07:27:05 51°18.107 2°51.441 6.1 302 16.7 101630 48
2011-08-17 07:27:10 51°18.12 2°51.422 5.9 28 16.7 101620 48
2011-08-17 07:27:14 51°18.13 2°51.407 5.3 309 16.7 101620 48
2011-08-17 07:27:20 51°18.146 2°51.383 5.1 29 16.7 101630 48
2011-08-17 07:27:25 51°18.159 2°51.363 6.2 302 16.7 101630 48
2011-08-17 07:27:30 51°18.171 2°51.342 6.4 28 16.7 101630 49
2011-08-17 07:27:34 51°18.181 2°51.326 6.4 303 16.7 101630 49
2011-08-17 07:27:39 51°18.194 2°51.305 6.5 28 16.7 101630 49
2011-08-17 07:27:45 51°18.208 2°51.28 6.5 304 16.7 101630 49
2011-08-17 07:27:50 51°18.221 2°51.26 7.2 24 16.7 101630 49
2011-08-17 07:27:54 51°18.231 2°51.244 6.2 309 16.7 101630 49
2011-08-17 07:28:00 51°18.247 2°51.22 6 23 16.7 101630 48
2011-08-17 07:28:05 51°18.26 2°51.201 7.1 310 16.7 101630 48
2011-08-17 07:28:10 51°18.273 2°51.183 6.5 21 16.7 101620 47
2011-08-17 07:28:14 51°18.284 2°51.17 5.9 308 16.7 101620 47
2011-08-17 07:28:20 51°18.299 2°51.151 4.5 26 16.8 101630 49
2011-08-17 07:28:25 51°18.312 2°51.136 4.4 302 16.8 101630 49
2011-08-17 07:28:30 51°18.325 2°51.123 4.5 26 16.8 101630 48
2011-08-17 07:28:34 51°18.335 2°51.113 4.6 285 16.8 101630 48
2011-08-17 07:28:40 51°18.349 2°51.099 4.7 23 16.8 101630 49
2011-08-17 07:28:45 51°18.361 2°51.089 4.7 304 16.8 101630 49
2011-08-17 07:28:50 51°18.372 2°51.079 3.9 21 16.8 101630 48
2011-08-17 07:28:55 51°18.383 2°51.071 3.5 309 16.8 101630 48
2011-08-17 07:29:00 51°18.392 2°51.063 3.9 22 16.8 101630 49
2011-08-17 07:29:05 51°18.403 2°51.055 3.3 300 16.8 101630 49
2011-08-17 07:29:10 51°18.411 2°51.049 3 20 16.8 101630 48
2011-08-17 07:29:15 51°18.419 2°51.044 2.8 302 16.8 101630 48
2011-08-17 07:29:20 51°18.427 2°51.039 2.7 28 16.8 101630 48
2011-08-17 07:29:25 51°18.435 2°51.036 2.4 307 16.8 101630 48
2011-08-17 07:29:30 51°18.442 2°51.033 1.7 23 16.8 101630 49
2011-08-17 07:29:34 51°18.447 2°51.031 1 303 16.8 101630 49
2011-08-17 07:29:40 51°18.454 2°51.029 0.2 248 16.9 101630 49
2011-08-17 07:29:45 51°18.46 2°51.027 0.1 305 16.9 101630 49
2011-08-17 07:29:50 51°18.465 2°51.026 0.1 252 16.9 101640 48
2011-08-17 07:29:54 51°18.47 2°51.025 -999 305 16.9 101640 48
2011-08-17 07:29:59 51°18.474 2°51.024 -999 254 16.9 101640 48
2011-08-17 07:30:05 51°18.48 2°51.024 -999 305 16.9 101640 48
2011-08-17 07:30:10 51°18.484 2°51.023 -999 259 16.9 101640 49
2011-08-17 07:30:14 51°18.488 2°51.023 -999 305 16.9 101640 49
2011-08-17 07:30:20 51°18.492 2°51.023 -999 266 16.9 101640 49
2011-08-17 07:30:25 51°18.496 2°51.022 -999 305 16.9 101640 49
2011-08-17 07:30:30 51°18.5 2°51.021 -999 28 16.9 101640 49
2011-08-17 07:30:35 51°18.502 2°51.021 0.6 285 16.9 101640 49
2011-08-17 07:30:39 51°18.504 2°51.02 0.5 31 16.9 101640 48
2011-08-17 07:30:45 51°18.507 2°51.018 0.9 312 16.9 101640 48
2011-08-17 07:30:50 51°18.509 2°51.017 0.6 270 16.9 101640 47
2011-08-17 07:30:54 51°18.51 2°51.016 0.9 300 16.9 101640 47
2011-08-17 07:31:00 51°18.511 2°51.014 1.2 268 16.9 101640 48
2011-08-17 07:31:05 51°18.513 2°51.012 1 305 16.9 101640 48
2011-08-17 07:31:10 51°18.514 2°51.011 0.2 269 16.9 101640 48
2011-08-17 07:31:15 51°18.516 2°51.009 0.1 305 16.9 101640 48
2011-08-17 07:31:20 51°18.517 2°51.007 0.1 29 17 101640 48
2011-08-17 07:31:25 51°18.518 2°51.005 -999 55 17 101640 48
2011-08-17 07:31:30 51°18.519 2°51.003 -999 25 16.9 101640 48
2011-08-17 07:31:34 51°18.52 2°51.002 -999 286 16.9 101640 48
2011-08-17 07:31:40 51°18.521 2°50.999 -999 268 17 101640 49
2011-08-17 07:31:45 51°18.522 2°50.997 -999 305 17 101640 49
2011-08-17 07:31:50 51°18.523 2°50.995 -999 265 17 101640 48
2011-08-17 07:31:54 51°18.524 2°50.993 -999 305 17 101640 48
2011-08-17 07:32:00 51°18.525 2°50.991 -999 259 17 101640 48
2011-08-17 07:32:05 51°18.525 2°50.988 -999 305 17 101640 48
2011-08-17 07:32:10 51°18.526 2°50.986 -999 259 17 101640 48
2011-08-17 07:32:14 51°18.527 2°50.985 -999 305 17 101640 48
2011-08-17 07:32:20 51°18.528 2°50.982 -999 252 17 101640 49
2011-08-17 07:32:25 51°18.529 2°50.98 -999 305 17 101640 49
2011-08-17 07:32:30 51°18.529 2°50.978 -999 250 17 101640 48
2011-08-17 07:32:34 51°18.53 2°50.976 -999 305 17 101640 48
2011-08-17 07:32:40 51°18.531 2°50.973 -999 248 17 101640 49
2011-08-17 07:32:45 51°18.531 2°50.971 -999 305 17 101640 49
2011-08-17 07:32:50 51°18.532 2°50.969 -999 252 17.1 101640 48
2011-08-17 07:32:54 51°18.533 2°50.967 -999 305 17.1 101640 48
2011-08-17 07:33:00 51°18.533 2°50.965 -999 252 17 101640 48
2011-08-17 07:33:05 51°18.534 2°50.963 -999 305 17 101640 48
2011-08-17 07:33:10 51°18.534 2°50.96 -999 255 17.1 101640 48
2011-08-17 07:33:15 51°18.535 2°50.958 -999 305 17.1 101640 48
2011-08-17 07:33:20 51°18.535 2°50.956 -999 257 17 101640 48
2011-08-17 07:33:25 51°18.535 2°50.954 -999 305 17 101640 48
2011-08-17 07:33:30 51°18.536 2°50.951 -999 261 17.1 101640 47
2011-08-17 07:33:35 51°18.536 2°50.949 -999 281 17.1 101640 47
2011-08-17 07:33:40 51°18.537 2°50.947 -999 261 17.1 101640 48
2011-08-17 07:33:45 51°18.537 2°50.945 -999 305 17.1 101640 48
2011-08-17 07:33:50 51°18.537 2°50.943 -999 256 17.1 101640 48
2011-08-17 07:33:54 51°18.537 2°50.941 -999 305 17.1 101640 48
2011-08-17 07:34:00 51°18.538 2°50.938 -999 255 17.1 101640 48
2011-08-17 07:34:05 51°18.538 2°50.936 -999 305 17.1 101640 48
2011-08-17 07:34:10 51°18.538 2°50.934 -999 255 17.1 101630 48
2011-08-17 07:34:14 51°18.539 2°50.932 -999 305 17.1 101630 48
2011-08-17 07:34:19 51°18.539 2°50.93 -999 257 17 101640 48
2011-08-17 07:34:25 51°18.539 2°50.928 -999 305 17 101640 48
2011-08-17 07:34:30 51°18.539 2°50.925 -999 259 17.1 101640 48
2011-08-17 07:34:34 51°18.54 2°50.924 -999 281 17.1 101640 48
2011-08-17 07:34:40 51°18.54 2°50.921 -999 257 17 101640 48
2011-08-17 07:34:45 51°18.54 2°50.919 -999 305 17 101640 48
2011-08-17 07:34:50 51°18.54 2°50.917 -999 257 17 101630 48
2011-08-17 07:34:54 51°18.54 2°50.915 -999 305 17 101630 48
2011-08-17 07:35:00 51°18.54 2°50.913 -999 255 17 101640 48
2011-08-17 07:35:05 51°18.54 2°50.911 -999 305 17 101640 48
2011-08-17 07:35:10 51°18.54 2°50.909 -999 257 17 101640 48
2011-08-17 07:35:15 51°18.54 2°50.907 -999 305 17 101640 48
2011-08-17 07:35:20 51°18.54 2°50.904 -999 257 17 101640 48
2011-08-17 07:35:25 51°18.54 2°50.902 -999 305 17 101640 48
2011-08-17 07:35:30 51°18.541 2°50.9 -999 256 17 101640 48
2011-08-17 07:35:34 51°18.541 2°50.898 -999 281 17 101640 48
2011-08-17 07:35:40 51°18.541 2°50.896 -999 257 17 101630 48
2011-08-17 07:35:45 51°18.541 2°50.894 -999 305 17 101630 48
2011-08-17 07:35:50 51°18.541 2°50.892 -999 252 17 101630 48
2011-08-17 07:35:54 51°18.541 2°50.89 -999 305 17 101630 48
2011-08-17 07:36:00 51°18.541 2°50.888 -999 250 17 101640 48
2011-08-17 07:36:05 51°18.541 2°50.886 -999 305 17 101640 48
2011-08-17 07:36:10 51°18.541 2°50.883 -999 253 17 101630 47
2011-08-17 07:36:14 51°18.541 2°50.882 -999 305 17 101630 47
2011-08-17 07:36:20 51°18.541 2°50.88 -999 255 17 101630 48
2011-08-17 07:36:25 51°18.541 2°50.878 -999 305 17 101630 48
2011-08-17 07:36:30 51°18.541 2°50.876 -999 255 17 101630 48
2011-08-17 07:36:34 51°18.54 2°50.874 -999 281 17 101630 48
2011-08-17 07:36:40 51°18.54 2°50.872 -999 252 17 101630 48
2011-08-17 07:36:45 51°18.54 2°50.87 -999 305 17 101630 48
2011-08-17 07:36:50 51°18.54 2°50.868 -999 253 17 101630 48
2011-08-17 07:36:55 51°18.54 2°50.866 -999 305 17 101630 48
2011-08-17 07:36:59 51°18.54 2°50.864 -999 254 17.1 101640 48
2011-08-17 07:37:05 51°18.54 2°50.862 -999 305 17.1 101640 48
2011-08-17 07:37:10 51°18.539 2°50.86 -999 254 17.1 101630 48
2011-08-17 07:37:15 51°18.539 2°50.858 -999 305 17.1 101630 48
2011-08-17 07:37:20 51°18.539 2°50.856 -999 255 17.1 101630 48
2011-08-17 07:37:25 51°18.539 2°50.855 -999 305 17.1 101630 48
2011-08-17 07:37:30 51°18.539 2°50.853 -999 255 17.1 101630 48
2011-08-17 07:37:34 51°18.538 2°50.851 -999 305 17.1 101630 48
2011-08-17 07:37:40 51°18.538 2°50.849 -999 254 17.1 101630 48
2011-08-17 07:37:45 51°18.538 2°50.847 -999 305 17.1 101630 48
2011-08-17 07:37:50 51°18.538 2°50.845 -999 254 17.1 101630 48
2011-08-17 07:37:54 51°18.538 2°50.844 -999 305 17.1 101630 48
2011-08-17 07:38:00 51°18.537 2°50.841 -999 254 17.2 101630 48
2011-08-17 07:38:05 51°18.537 2°50.84 -999 305 17.2 101630 48
2011-08-17 07:38:10 51°18.537 2°50.838 -999 257 17.1 101630 48
2011-08-17 07:38:15 51°18.537 2°50.836 -999 305 17.1 101630 48
2011-08-17 07:38:20 51°18.537 2°50.834 -999 253 17.1 101630 48
2011-08-17 07:38:25 51°18.536 2°50.832 -999 305 17.1 101630 48
2011-08-17 07:38:30 51°18.536 2°50.831 -999 253 17.2 101630 48
2011-08-17 07:38:34 51°18.536 2°50.829 -999 281 17.2 101630 48
2011-08-17 07:38:40 51°18.536 2°50.827 -999 252 17.2 101630 48
2011-08-17 07:38:45 51°18.535 2°50.825 -999 305 17.2 101630 48
2011-08-17 07:38:50 51°18.535 2°50.823 -999 254 17.2 101630 47
2011-08-17 07:38:54 51°18.535 2°50.822 -999 305 17.2 101630 47
2011-08-17 07:39:00 51°18.534 2°50.82 -999 254 17.2 101630 48
2011-08-17 07:39:05 51°18.534 2°50.818 -999 305 17.2 101630 48
2011-08-17 07:39:10 51°18.534 2°50.816 -999 254 17.2 101630 48
2011-08-17 07:39:15 51°18.534 2°50.814 -999 305 17.2 101630 48